Location: *
(23.5860°S, 65.4036°W)
Time: 03:45:58
(UTC+00:00)

Meteor 1-27 Rocket - Pass Details

Date: 25 August 2019
Orbit: 830 x 910 km, 81.3° (Epoch: 19 September)

Event Time Altitude Azimuth Distance (km) Brightness Sun altitude
Rises 22:57:07 0° 8° (N) 3,397 6.8 -11.8°
Reaches altitude 10° 22:59:36 10° 13° (NNE) 2,459 6.1 -12.4°
Maximum altitude 23:04:56 49° 86° (E) 1,070 3.8 -13.6°
Drops below altitude 10° 23:10:17 10° 160° (SSE) 2,457 5.9 -14.8°
Sets 23:12:45 0° 165° (SSE) 3,395 6.6 -15.4°
